Location: ?????????
(54.7630°N, 39.4991°E)
Time: 22:28:52
(UTC+00:00)

Cosmos 1420 Rocket - Pass Details

Date: 14 April 2026
Orbit: 749 x 777 km, 74.0° (Epoch: 13 May)

Event Time Altitude Azimuth Distance (km) Brightness Sun altitude
Exits shadow 21:20:23 56° 104° (ESE) 915 4.2 -25.6°
Drops below altitude 10° 21:25:26 10° 33° (NNE) 2,328 7.2 -25.6°
Sets 21:27:51 0° 30° (NNE) 3,263 8.2 -25.6°
